FFT27D KSAN-KPHX

Flight info

Callsign FFT27D
Flight time 0h 53m
Altitude 37000
Route ZZOOO4 HOGGZ HYDRR1
Aircraft A320/M-SDE3FGHIRWY/LB1

Departure

Time 2026-05-07 13:52
Airport San Diego International Airport (KSAN)

Arrival

Time 2026-05-07 14:45
Airport Phoenix Sky Harbor International Airport (KPHX)
Time Latitude Longitude Altitude Speed Heading
2026-05-07 13:09 32.73349 -117.20059 26 ft 0 kts 262°
2026-05-07 13:39 32.73351 -117.20040 30 ft 4 kts 262°
2026-05-07 13:39 32.73354 -117.20012 26 ft 2 kts 262°
2026-05-07 13:39 32.73354 -117.19989 26 ft 4 kts 322°
2026-05-07 13:40 32.73334 -117.19986 29 ft 4 kts 13°
2026-05-07 13:40 32.73322 -117.19989 28 ft 1 kts 13°
2026-05-07 13:45 32.73330 -117.19987 30 ft 4 kts 13°
2026-05-07 13:46 32.73386 -117.19972 27 ft 10 kts 13°
2026-05-07 13:46 32.73448 -117.19953 27 ft 9 kts 22°
2026-05-07 13:46 32.73477 -117.19902 27 ft 7 kts 88°
2026-05-07 13:46 32.73468 -117.19854 27 ft 5 kts 104°
2026-05-07 13:47 32.73454 -117.19795 27 ft 12 kts 105°
2026-05-07 13:47 32.73422 -117.19661 28 ft 15 kts 107°
2026-05-07 13:47 32.73393 -117.19545 27 ft 15 kts 106°
2026-05-07 13:47 32.73364 -117.19427 27 ft 16 kts 106°
2026-05-07 13:48 32.73330 -117.19288 24 ft 19 kts 103°
2026-05-07 13:48 32.73302 -117.19167 24 ft 11 kts 103°
2026-05-07 13:48 32.73294 -117.19086 26 ft 8 kts 92°
2026-05-07 13:48 32.73289 -117.19026 26 ft 6 kts 108°
2026-05-07 13:49 32.73260 -117.18973 26 ft 10 kts 119°
2026-05-07 13:49 32.73233 -117.18874 27 ft 15 kts 108°
2026-05-07 13:49 32.73201 -117.18753 40 ft 15 kts 107°
2026-05-07 13:49 32.73169 -117.18628 29 ft 17 kts 107°
2026-05-07 13:50 32.73135 -117.18476 26 ft 21 kts 102°
2026-05-07 13:50 32.73094 -117.18306 30 ft 23 kts 110°
2026-05-07 13:50 32.73063 -117.18162 23 ft 14 kts 81°
2026-05-07 13:50 32.73104 -117.18101 23 ft 9 kts 26°
2026-05-07 13:51 32.73148 -117.18140 24 ft 13 kts 283°
2026-05-07 13:51 32.73193 -117.18302 27 ft 32 kts 285°
2026-05-07 13:51 32.73309 -117.18787 30 ft 96 kts 286°
2026-05-07 13:51 32.73556 -117.19797 37 ft 155 kts 285°
2026-05-07 13:52 32.73817 -117.21020 670 ft 151 kts 284°
2026-05-07 13:52 32.74097 -117.22229 1365 ft 153 kts 288°
2026-05-07 13:52 32.74447 -117.23436 2024 ft 159 kts 290°
2026-05-07 13:52 32.74786 -117.24776 2395 ft 180 kts 287°
2026-05-07 13:53 32.75134 -117.26269 2805 ft 199 kts 288°
2026-05-07 13:53 32.75530 -117.27913 3295 ft 214 kts 289°
2026-05-07 13:53 32.75965 -117.29667 3759 ft 231 kts 289°
2026-05-07 13:53 32.76443 -117.31568 4362 ft 244 kts 287°
2026-05-07 13:54 32.76556 -117.33583 5207 ft 254 kts 256°
2026-05-07 13:54 32.75600 -117.35365 5912 ft 266 kts 217°
2026-05-07 13:54 32.73878 -117.36107 6705 ft 268 kts 178°
2026-05-07 13:54 32.72113 -117.35516 7581 ft 265 kts 145°
2026-05-07 13:55 32.70714 -117.34104 8493 ft 265 kts 131°
2026-05-07 13:55 32.69512 -117.32453 9519 ft 263 kts 127°
2026-05-07 13:55 32.68356 -117.30793 10490 ft 260 kts 127°
2026-05-07 13:55 32.67177 -117.29173 11429 ft 258 kts 129°
2026-05-07 13:56 32.65914 -117.27619 12159 ft 268 kts 132°
2026-05-07 13:56 32.64583 -117.26057 12848 ft 273 kts 128°
2026-05-07 13:56 32.63518 -117.24206 13655 ft 272 kts 112°
2026-05-07 13:56 32.62951 -117.22079 14412 ft 271 kts 96°
2026-05-07 13:57 32.62764 -117.19751 14516 ft 299 kts 92°
2026-05-07 13:57 32.62564 -117.17185 14668 ft 325 kts 94°
2026-05-07 13:57 32.62293 -117.14442 15012 ft 340 kts 94°
2026-05-07 13:57 32.62015 -117.11621 15613 ft 347 kts 94°
2026-05-07 13:58 32.61756 -117.08757 16243 ft 352 kts 93°
2026-05-07 13:58 32.61745 -117.05868 16947 ft 349 kts 76°
2026-05-07 13:58 32.62594 -117.03196 17669 ft 347 kts 59°
2026-05-07 13:58 32.63846 -117.00744 18388 ft 348 kts 56°
2026-05-07 13:59 32.65135 -116.98298 18992 ft 351 kts 56°
2026-05-07 13:59 32.66288 -116.95725 19574 ft 357 kts 66°
2026-05-07 13:59 32.66828 -116.92822 20147 ft 366 kts 82°
2026-05-07 13:59 32.66969 -116.89793 20741 ft 370 kts 85°
2026-05-07 14:00 32.67016 -116.86724 21337 ft 374 kts 86°
2026-05-07 14:00 32.67030 -116.83628 21928 ft 377 kts 86°
2026-05-07 14:00 32.67044 -116.80545 22502 ft 380 kts 86°
2026-05-07 14:00 32.67076 -116.77391 23071 ft 383 kts 85°
2026-05-07 14:01 32.67118 -116.74212 23637 ft 387 kts 86°
2026-05-07 14:01 32.67114 -116.70999 24111 ft 391 kts 87°
2026-05-07 14:01 32.67069 -116.67759 24585 ft 394 kts 88°
2026-05-07 14:01 32.67001 -116.64494 25051 ft 397 kts 88°
2026-05-07 14:02 32.66925 -116.61201 25519 ft 400 kts 88°
2026-05-07 14:02 32.66850 -116.57896 25972 ft 402 kts 88°
2026-05-07 14:02 32.66782 -116.54566 26436 ft 405 kts 87°
2026-05-07 14:02 32.66719 -116.51223 26836 ft 407 kts 87°
2026-05-07 14:03 32.66660 -116.47852 27239 ft 409 kts 87°
2026-05-07 14:03 32.66605 -116.44463 27648 ft 412 kts 87°
2026-05-07 14:03 32.66703 -116.41070 28049 ft 411 kts 80°
2026-05-07 14:03 32.67025 -116.37686 28433 ft 413 kts 79°
2026-05-07 14:04 32.67342 -116.34287 28827 ft 416 kts 80°
2026-05-07 14:04 32.67652 -116.30868 29208 ft 418 kts 80°
2026-05-07 14:04 32.67961 -116.27424 29581 ft 421 kts 80°
2026-05-07 14:04 32.68271 -116.23953 29948 ft 423 kts 80°
2026-05-07 14:05 32.68576 -116.20524 30279 ft 425 kts 80°
2026-05-07 14:05 32.68887 -116.17019 30575 ft 428 kts 80°
2026-05-07 14:05 32.69200 -116.13499 30870 ft 430 kts 79°
2026-05-07 14:05 32.69515 -116.09960 31157 ft 432 kts 79°
2026-05-07 14:06 32.69832 -116.06407 31444 ft 434 kts 79°
2026-05-07 14:06 32.70150 -116.02829 31710 ft 437 kts 79°
2026-05-07 14:06 32.70473 -115.99240 32068 ft 436 kts 79°
2026-05-07 14:06 32.70803 -115.95666 32453 ft 435 kts 79°
2026-05-07 14:07 32.71139 -115.92100 32843 ft 434 kts 79°
2026-05-07 14:07 32.71473 -115.88535 33212 ft 434 kts 79°
2026-05-07 14:07 32.71803 -115.84973 33579 ft 434 kts 79°
2026-05-07 14:07 32.72130 -115.81412 33948 ft 433 kts 78°
2026-05-07 14:08 32.72456 -115.77857 34275 ft 433 kts 78°
2026-05-07 14:08 32.72780 -115.74302 34577 ft 433 kts 78°
2026-05-07 14:08 32.73105 -115.70747 34878 ft 432 kts 79°
2026-05-07 14:08 32.73424 -115.67243 35204 ft 431 kts 78°
2026-05-07 14:09 32.73742 -115.63707 35552 ft 429 kts 78°
2026-05-07 14:09 32.74058 -115.60188 35831 ft 428 kts 78°
2026-05-07 14:09 32.74231 -115.58261 35987 ft 428 kts 78°
2026-05-07 14:10 32.74264 -115.57890 36018 ft 428 kts 78°
2026-05-07 14:10 32.74576 -115.54379 36292 ft 427 kts 78°
2026-05-07 14:10 32.74883 -115.50866 36557 ft 427 kts 79°
2026-05-07 14:10 32.75099 -115.47340 36812 ft 429 kts 82°
2026-05-07 14:11 32.75215 -115.43801 36952 ft 429 kts 83°
2026-05-07 14:11 32.75287 -115.37936 36972 ft 425 kts 84°
2026-05-07 14:12 32.75364 -115.30924 37013 ft 424 kts 83°
2026-05-07 14:12 32.75505 -115.23941 36998 ft 422 kts 83°
2026-05-07 14:13 32.75675 -115.16973 36993 ft 422 kts 83°
2026-05-07 14:13 32.75840 -115.10002 36992 ft 422 kts 83°
2026-05-07 14:14 32.75990 -115.03025 36992 ft 422 kts 83°
2026-05-07 14:14 32.76130 -114.96045 37003 ft 422 kts 83°
2026-05-07 14:15 32.76269 -114.89119 37008 ft 422 kts 83°
2026-05-07 14:15 32.76407 -114.82152 37002 ft 422 kts 83°
2026-05-07 14:16 32.76544 -114.75190 37002 ft 421 kts 83°
2026-05-07 14:16 32.76676 -114.68228 37005 ft 421 kts 83°
2026-05-07 14:17 32.76795 -114.61259 37002 ft 421 kts 83°
2026-05-07 14:17 32.76906 -114.54302 37001 ft 421 kts 83°
2026-05-07 14:18 32.76998 -114.47337 36995 ft 421 kts 84°
2026-05-07 14:18 32.77088 -114.40420 36996 ft 421 kts 84°
2026-05-07 14:19 32.77174 -114.33411 36947 ft 421 kts 84°
2026-05-07 14:19 32.77267 -114.26518 36950 ft 420 kts 84°
2026-05-07 14:20 32.77353 -114.19595 36958 ft 419 kts 84°
2026-05-07 14:20 32.77428 -114.12666 36945 ft 419 kts 84°
2026-05-07 14:21 32.78358 -114.05953 36942 ft 408 kts 65°
2026-05-07 14:21 32.80980 -114.00052 36942 ft 403 kts 56°
2026-05-07 14:22 32.83873 -113.94332 36933 ft 404 kts 56°
2026-05-07 14:22 32.85305 -113.91488 36575 ft 407 kts 56°
2026-05-07 14:22 32.86760 -113.88591 35876 ft 408 kts 56°
2026-05-07 14:22 32.88222 -113.85679 34893 ft 415 kts 56°
2026-05-07 14:23 32.89712 -113.82714 34140 ft 417 kts 56°
2026-05-07 14:23 32.91191 -113.79768 33480 ft 414 kts 56°
2026-05-07 14:23 32.92657 -113.76848 32833 ft 406 kts 56°
2026-05-07 14:23 32.94094 -113.73988 31873 ft 399 kts 56°
2026-05-07 14:24 32.95501 -113.71182 30989 ft 390 kts 56°
2026-05-07 14:24 32.96876 -113.68435 30139 ft 382 kts 57°
2026-05-07 14:24 32.98229 -113.65736 29160 ft 375 kts 57°
2026-05-07 14:24 32.99554 -113.63093 28192 ft 369 kts 57°
2026-05-07 14:25 33.00854 -113.60495 27250 ft 363 kts 57°
2026-05-07 14:25 33.01707 -113.58789 26635 ft 360 kts 57°
2026-05-07 14:25 33.03386 -113.55431 26001 ft 346 kts 57°
2026-05-07 14:25 33.04614 -113.52979 25575 ft 343 kts 57°
2026-05-07 14:26 33.05830 -113.50551 25158 ft 339 kts 57°
2026-05-07 14:26 33.07014 -113.48176 24721 ft 336 kts 58°
2026-05-07 14:26 33.08217 -113.45758 24280 ft 333 kts 58°
2026-05-07 14:26 33.09379 -113.43420 23862 ft 330 kts 58°
2026-05-07 14:27 33.10544 -113.41076 23411 ft 328 kts 58°
2026-05-07 14:27 33.11703 -113.38745 22937 ft 325 kts 58°
2026-05-07 14:27 33.12848 -113.36442 22529 ft 321 kts 58°
2026-05-07 14:27 33.13980 -113.34167 22109 ft 317 kts 58°
2026-05-07 14:28 33.15096 -113.31915 21720 ft 314 kts 58°
2026-05-07 14:28 33.16202 -113.29680 21317 ft 311 kts 58°
2026-05-07 14:28 33.17299 -113.27473 20934 ft 308 kts 58°
2026-05-07 14:28 33.18384 -113.25283 20558 ft 305 kts 58°
2026-05-07 14:29 33.19463 -113.23108 20161 ft 303 kts 58°
2026-05-07 14:29 33.20532 -113.20951 19783 ft 301 kts 58°
2026-05-07 14:29 33.21593 -113.18806 19404 ft 299 kts 58°
2026-05-07 14:29 33.22648 -113.16673 19035 ft 298 kts 59°
2026-05-07 14:30 33.23697 -113.14547 18663 ft 296 kts 59°
2026-05-07 14:30 33.24739 -113.12434 18307 ft 295 kts 59°
2026-05-07 14:30 33.25783 -113.10316 17878 ft 295 kts 59°
2026-05-07 14:30 33.26768 -113.08175 17484 ft 294 kts 66°
2026-05-07 14:31 33.27369 -113.05847 17105 ft 294 kts 78°
2026-05-07 14:31 33.27526 -113.03415 16727 ft 294 kts 86°
2026-05-07 14:31 33.27575 -113.00973 16354 ft 294 kts 86°
2026-05-07 14:31 33.27634 -112.98523 15839 ft 298 kts 86°
2026-05-07 14:32 33.27697 -112.96077 15539 ft 296 kts 86°
2026-05-07 14:32 33.27761 -112.93635 15238 ft 293 kts 86°
2026-05-07 14:32 33.27824 -112.91202 14886 ft 293 kts 86°
2026-05-07 14:32 33.27886 -112.88768 14528 ft 293 kts 86°
2026-05-07 14:33 33.27948 -112.86333 14157 ft 294 kts 87°
2026-05-07 14:33 33.28013 -112.83890 13781 ft 294 kts 85°
2026-05-07 14:33 33.28367 -112.81495 13385 ft 293 kts 71°
2026-05-07 14:33 33.29142 -112.79248 13018 ft 291 kts 65°
2026-05-07 14:34 33.29973 -112.77045 12641 ft 291 kts 66°
2026-05-07 14:34 33.30798 -112.74844 12268 ft 290 kts 66°
2026-05-07 14:34 33.31609 -112.72676 12111 ft 281 kts 66°
2026-05-07 14:34 33.32395 -112.70579 11966 ft 273 kts 66°
2026-05-07 14:35 33.33161 -112.68528 11733 ft 269 kts 65°
2026-05-07 14:35 33.33930 -112.66492 11379 ft 269 kts 65°
2026-05-07 14:35 33.34708 -112.64457 11014 ft 269 kts 65°
2026-05-07 14:35 33.35490 -112.62420 10603 ft 272 kts 65°
2026-05-07 14:36 33.36270 -112.60388 10348 ft 267 kts 65°
2026-05-07 14:36 33.37041 -112.58372 10012 ft 266 kts 65°
2026-05-07 14:36 33.37808 -112.56362 9634 ft 266 kts 65°
2026-05-07 14:36 33.38574 -112.54351 9251 ft 265 kts 65°
2026-05-07 14:37 33.39347 -112.52324 8686 ft 271 kts 65°
2026-05-07 14:37 33.40858 -112.48305 8107 ft 261 kts 66°
2026-05-07 14:37 33.41563 -112.46307 7728 ft 260 kts 67°
2026-05-07 14:38 33.42256 -112.44307 7349 ft 259 kts 67°
2026-05-07 14:38 33.42802 -112.42267 6985 ft 258 kts 81°
2026-05-07 14:38 33.42857 -112.40137 6692 ft 253 kts 89°
2026-05-07 14:38 33.42852 -112.38046 6400 ft 249 kts 89°
2026-05-07 14:39 33.42854 -112.35998 6102 ft 244 kts 89°
2026-05-07 14:39 33.42858 -112.33985 5819 ft 239 kts 89°
2026-05-07 14:39 33.42860 -112.32022 5638 ft 230 kts 89°
2026-05-07 14:39 33.42861 -112.30147 5443 ft 223 kts 89°
2026-05-07 14:40 33.42865 -112.28330 5176 ft 212 kts 89°
2026-05-07 14:40 33.42867 -112.26611 4945 ft 202 kts 88°
2026-05-07 14:40 33.42870 -112.24963 4675 ft 194 kts 88°
2026-05-07 14:40 33.42873 -112.23376 4391 ft 187 kts 88°
2026-05-07 14:41 33.42875 -112.21841 4151 ft 182 kts 88°
2026-05-07 14:41 33.42877 -112.20335 3912 ft 179 kts 88°
2026-05-07 14:41 33.42878 -112.18918 3706 ft 164 kts 88°
2026-05-07 14:41 33.42879 -112.17611 3494 ft 151 kts 88°
2026-05-07 14:42 33.42880 -112.16402 3308 ft 140 kts 87°
2026-05-07 14:42 33.42881 -112.15256 3131 ft 136 kts 88°
2026-05-07 14:42 33.42882 -112.14133 2958 ft 134 kts 88°
2026-05-07 14:42 33.42883 -112.13022 2787 ft 133 kts 88°
2026-05-07 14:43 33.42884 -112.11914 2618 ft 133 kts 88°
2026-05-07 14:43 33.42885 -112.10804 2445 ft 134 kts 88°
2026-05-07 14:43 33.42885 -112.09683 2275 ft 135 kts 88°
2026-05-07 14:43 33.42885 -112.08558 2110 ft 136 kts 88°
2026-05-07 14:44 33.42886 -112.07423 1946 ft 136 kts 89°
2026-05-07 14:44 33.42886 -112.06288 1786 ft 137 kts 89°
2026-05-07 14:44 33.42886 -112.05145 1616 ft 138 kts 89°
2026-05-07 14:44 33.42887 -112.04013 1429 ft 138 kts 89°
2026-05-07 14:45 33.42892 -112.02865 1248 ft 137 kts 89°
2026-05-07 14:45 33.42899 -112.01780 1166 ft 113 kts 90°
2026-05-07 14:45 33.42887 -112.01051 1172 ft 55 kts 89°
2026-05-07 14:45 33.42892 -112.00783 1171 ft 32 kts 89°
2026-05-07 14:46 33.42903 -112.00551 1172 ft 23 kts 71°
2026-05-07 14:46 33.42972 -112.00438 1172 ft 15 kts 63°
2026-05-07 14:46 33.43032 -112.00320 1174 ft 17 kts 33°
2026-05-07 14:46 33.43138 -112.00319 1176 ft 10 kts 358°
2026-05-07 14:47 33.43212 -112.00355 1177 ft 11 kts 311°
2026-05-07 14:47 33.43272 -112.00408 1174 ft 10 kts 305°
2026-05-07 14:47 33.43287 -112.00486 1176 ft 9 kts 271°
2026-05-07 14:47 33.43288 -112.00558 1175 ft 8 kts 271°
2026-05-07 14:48 33.43289 -112.00622 1175 ft 7 kts 271°
2026-05-07 14:48 33.43296 -112.00711 1171 ft 17 kts 289°
2026-05-07 14:48 33.43364 -112.00784 1170 ft 10 kts 266°
2026-05-07 14:48 33.43357 -112.00864 1169 ft 9 kts 266°
2026-05-07 14:49 33.43357 -112.00928 1172 ft 5 kts 270°
2026-05-07 14:49 33.43371 -112.00960 1176 ft 4 kts 329°
2026-05-07 14:49 33.43396 -112.00967 1176 ft 3 kts 346°
2026-05-07 14:49 33.43399 -112.00968 1175 ft 0 kts 346°
2026-05-07 15:12 33.43391 -112.00966 1181 ft 4 kts 343°
2026-05-07 15:13 33.43367 -112.00953 1178 ft 4 kts 315°
2026-05-07 15:13 33.43356 -112.00929 1178 ft 2 kts 270°
2026-05-07 15:13 33.43356 -112.00927 1178 ft 0 kts 270°
2026-05-07 15:16 33.43356 -112.00929 1178 ft 2 kts 270°
2026-05-07 15:16 33.43352 -112.00990 1175 ft 12 kts 257°
2026-05-07 15:16 33.43317 -112.01079 1176 ft 11 kts 239°
2026-05-07 15:17 33.43290 -112.01159 1174 ft 10 kts 263°
2026-05-07 15:17 33.43288 -112.01235 1176 ft 9 kts 269°
2026-05-07 15:17 33.43288 -112.01314 1175 ft 12 kts 270°
2026-05-07 15:17 33.43288 -112.01415 1177 ft 11 kts 270°
2026-05-07 15:18 33.43288 -112.01504 1176 ft 10 kts 270°
2026-05-07 15:18 33.43288 -112.01582 1178 ft 9 kts 270°
2026-05-07 15:18 33.43288 -112.01648 1178 ft 7 kts 270°
2026-05-07 15:18 33.43288 -112.01714 1178 ft 11 kts 270°
2026-05-07 15:19 33.43289 -112.01839 1176 ft 19 kts 270°
2026-05-07 15:19 33.43291 -112.02007 1178 ft 21 kts 271°
2026-05-07 15:19 33.43290 -112.02192 1177 ft 23 kts 266°
2026-05-07 15:19 33.43292 -112.02391 1174 ft 25 kts 271°
2026-05-07 15:20 33.43293 -112.02499 1173 ft 7 kts 270°
2026-05-07 15:20 33.43294 -112.02577 1171 ft 15 kts 270°
2026-05-07 15:20 33.43248 -112.02702 1173 ft 19 kts 192°
2026-05-07 15:20 33.43138 -112.02702 1163 ft 16 kts 167°
2026-05-07 15:21 33.43107 -112.02581 1170 ft 17 kts 91°
2026-05-07 15:21 33.43103 -112.02399 1170 ft 36 kts 91°
2026-05-07 15:21 33.43105 -112.01794 1172 ft 106 kts 90°
2026-05-07 15:21 33.43111 -112.00672 1181 ft 161 kts 89°
2026-05-07 15:22 33.43149 -111.99301 1749 ft 161 kts 86°
2026-05-07 15:22 33.43202 -111.97963 2372 ft 161 kts 86°
2026-05-07 15:22 33.43230 -111.96619 3064 ft 161 kts 87°
2026-05-07 15:22 33.43233 -111.95297 3722 ft 159 kts 88°
2026-05-07 15:23 33.43239 -111.93896 4081 ft 178 kts 86°
2026-05-07 15:23 33.43275 -111.92355 4399 ft 198 kts 86°
2026-05-07 15:23 33.43332 -111.90617 4715 ft 219 kts 86°
2026-05-07 15:23 33.43405 -111.88674 4951 ft 249 kts 89°
2026-05-07 15:24 33.42902 -111.86735 5986 ft 245 kts 125°
2026-05-07 15:24 33.41560 -111.85548 7109 ft 239 kts 149°
2026-05-07 15:24 33.40169 -111.84518 8041 ft 234 kts 143°
2026-05-07 15:24 33.38616 -111.83620 8360 ft 264 kts 170°
2026-05-07 15:25 33.36811 -111.83954 9218 ft 268 kts 207°
2026-05-07 15:25 33.35471 -111.85463 10073 ft 269 kts 243°
2026-05-07 15:25 33.35055 -111.87606 10827 ft 268 kts 275°
2026-05-07 15:25 33.35276 -111.89827 11599 ft 270 kts 279°
2026-05-07 15:26 33.35513 -111.92072 12347 ft 273 kts 278°
2026-05-07 15:26 33.35749 -111.94404 12756 ft 294 kts 278°
2026-05-07 15:26 33.35994 -111.96926 13014 ft 318 kts 278°
2026-05-07 15:26 33.36247 -111.99613 13229 ft 341 kts 277°
2026-05-07 15:27 33.36535 -112.02526 13408 ft 364 kts 279°
2026-05-07 15:27 33.36929 -112.05606 13645 ft 383 kts 281°
2026-05-07 15:27 33.37401 -112.08772 14174 ft 390 kts 282°
2026-05-07 15:27 33.37908 -112.11978 14756 ft 395 kts 282°
2026-05-07 15:28 33.38427 -112.15228 15339 ft 400 kts 282°
2026-05-07 15:28 33.38941 -112.18512 15904 ft 405 kts 282°
2026-05-07 15:28 33.39450 -112.21851 16505 ft 410 kts 282°
2026-05-07 15:28 33.39951 -112.25232 17092 ft 415 kts 282°
2026-05-07 15:29 33.40449 -112.28658 17678 ft 420 kts 282°
2026-05-07 15:29 33.40951 -112.32119 18263 ft 425 kts 282°
2026-05-07 15:29 33.41462 -112.35623 18750 ft 430 kts 282°
2026-05-07 15:29 33.41977 -112.39159 19276 ft 433 kts 282°
2026-05-07 15:30 33.42497 -112.42723 19792 ft 436 kts 282°
2026-05-07 15:30 33.43022 -112.46311 20311 ft 439 kts 282°
2026-05-07 15:30 33.43551 -112.49933 20792 ft 442 kts 283°
2026-05-07 15:30 33.44079 -112.53572 21290 ft 445 kts 283°
2026-05-07 15:31 33.44606 -112.57235 21766 ft 448 kts 282°
2026-05-07 15:31 33.45012 -112.60947 22236 ft 453 kts 276°
2026-05-07 15:31 33.45079 -112.64746 22681 ft 457 kts 273°
2026-05-07 15:31 33.45127 -112.68556 23115 ft 460 kts 274°
2026-05-07 15:32 33.45175 -112.72355 23527 ft 463 kts 274°
2026-05-07 15:32 33.45225 -112.76211 23883 ft 465 kts 274°
2026-05-07 15:32 33.45394 -112.80090 24224 ft 465 kts 280°
2026-05-07 15:32 33.46000 -112.83888 24551 ft 465 kts 287°
2026-05-07 15:33 33.46726 -112.87669 24882 ft 467 kts 287°
2026-05-07 15:33 33.47448 -112.91481 25214 ft 469 kts 286°
2026-05-07 15:33 33.48163 -112.95303 25537 ft 471 kts 286°
2026-05-07 15:33 33.48877 -112.99143 25852 ft 473 kts 286°
2026-05-07 15:34 33.49582 -113.02957 26160 ft 475 kts 286°
2026-05-07 15:34 33.50297 -113.06831 26453 ft 477 kts 286°
2026-05-07 15:34 33.51015 -113.10723 26737 ft 479 kts 286°
2026-05-07 15:34 33.51734 -113.14617 27036 ft 480 kts 286°
2026-05-07 15:35 33.52458 -113.18523 27348 ft 481 kts 286°
2026-05-07 15:35 33.53182 -113.22441 27623 ft 482 kts 286°
2026-05-07 15:35 33.53906 -113.26374 27880 ft 484 kts 286°
2026-05-07 15:35 33.54631 -113.30320 28120 ft 486 kts 286°
2026-05-07 15:36 33.55356 -113.34281 28347 ft 487 kts 286°
2026-05-07 15:36 33.56080 -113.38245 28590 ft 488 kts 286°
2026-05-07 15:36 33.56803 -113.42216 28896 ft 487 kts 286°
2026-05-07 15:36 33.57524 -113.46180 29271 ft 485 kts 287°
2026-05-07 15:37 33.58242 -113.50127 29630 ft 484 kts 287°
2026-05-07 15:37 33.58962 -113.54063 29958 ft 483 kts 287°
2026-05-07 15:37 33.59688 -113.57989 30250 ft 482 kts 287°
2026-05-07 15:37 33.60419 -113.61906 30529 ft 481 kts 287°
2026-05-07 15:38 33.61153 -113.65816 30806 ft 480 kts 287°
2026-05-07 15:38 33.61886 -113.69716 31081 ft 479 kts 287°
2026-05-07 15:38 33.62617 -113.73610 31339 ft 478 kts 287°
2026-05-07 15:38 33.63341 -113.77500 31621 ft 477 kts 287°
2026-05-07 15:39 33.64056 -113.81379 31932 ft 475 kts 287°
2026-05-07 15:39 33.64761 -113.85235 32236 ft 473 kts 287°
2026-05-07 15:39 33.65458 -113.89045 32524 ft 472 kts 287°
2026-05-07 15:39 33.66172 -113.92930 32797 ft 471 kts 287°
2026-05-07 15:40 33.66870 -113.96713 33064 ft 470 kts 287°
2026-05-07 15:40 33.67576 -114.00544 33353 ft 469 kts 286°
2026-05-07 15:40 33.68277 -114.04365 33654 ft 468 kts 286°
2026-05-07 15:40 33.68973 -114.08179 33938 ft 467 kts 286°
2026-05-07 15:41 33.69664 -114.11975 34241 ft 464 kts 286°
2026-05-07 15:41 33.70349 -114.15752 34524 ft 462 kts 286°
2026-05-07 15:41 33.71033 -114.19525 34790 ft 461 kts 286°
2026-05-07 15:41 33.71713 -114.23282 35036 ft 460 kts 286°
2026-05-07 15:42 33.72389 -114.27023 35277 ft 459 kts 286°